Regional Weather Roundup
Issued by NWS

Home | Current Version | Previous Version | Text Only | Print | Product List | Glossary Off
Versions: 1 2 3 4 5 6 7 8 9 10 11 12 13 14 15 16 17 18 19 20 21 22 23 24 25 26 27 28 29 30 31 32 33 34 35 36 37 38 39 40 41 42 43 44 45 46 47 48 49 50

000
ASUS43 KIND 261159
RWRIN

WEATHER ROUNDUP FOR INDIANA
NATIONAL WEATHER SERVICE INDIANAPOLIS IN
800 AM EDT WED JUL 26 2017

NOTE: "FAIR" INDICATES FEW OR NO CLOUDS BELOW 12,000 FEET WITH NO
SIGNIFICANT WEATHER AND/OR OBSTRUCTIONS TO VISIBILITY.

* - STATION DOES NOT REPORT WEATHER SUCH AS PRECIPITATION OR FOG.

+ - STATION NOT QUALITY CONTROLLED BY THE NATIONAL WEATHER SERVICE.
    USE DATA WITH CAUTION...ESPECIALLY DEWPOINT AND RELATIVE
    HUMIDITY OBSERVATIONS.

INZ001>003-010>013-019-020-261300-
NORTHWEST INDIANA

CITY           SKY/WX    TMP DP  RH WIND       PRES   REMARKS
GARY /AIRPORT/ PTSUNNY   66  61  82 S7        30.11S
MICHIGAN CITY+ CLOUDY    64  59  82 S3        30.12S
MONTICELLO +   SUNNY     63  61  93 CALM      30.14R
6HR MIN TEMP:  62; 6HR MAX TEMP:  65;

RENSSELAER +   SUNNY     63  61  94 SE6       30.13S

$$

LMZ046-743>745-261300-
SOUTHERN LAKE MICHIGAN

STATION/POSITION TIME  TEMP    WIND        PRES    WAVE
                       AIR SEA DIR/SP/G            HT
                 (UTC) (F)     (DEG/KT/KT) (MB)    (FT)
BURNS HARBOR     1140   67     180/ 10/ 15 1020.0R
MICHIGAN CITY    1130   67     160/  9/ 11   N/A
5NW MICH CITY    1150   68 74  180/ 12/ 14   N/A     1

$$

INZ004-005-014>016-021>024-261300-
NORTH CENTRAL INDIANA

CITY           SKY/WX    TMP DP  RH WIND       PRES   REMARKS
ELKHART        SUNNY     64  59  82 W3        30.15R
GOSHEN         MOSUNNY   64  59  83 S3        30.15R
6HR MIN TEMP:  59; 6HR MAX TEMP:  64;

SOUTH BEND     CLOUDY    65  61  87 S6        30.14R
6HR MIN TEMP:  64; 6HR MAX TEMP:  67;

WARSAW +       SUNNY     64  61  88 S5        30.14S

$$

INZ006>009-017-018-025>027-261300-
NORTHEAST INDIANA

CITY           SKY/WX    TMP DP  RH WIND       PRES   REMARKS
FORT WAYNE     MOSUNNY   63  59  87 S3        30.16F
6HR MIN TEMP:  59; 6HR MAX TEMP:  63;

KENDALLVILLE + SUNNY     63  62  94 S6        30.15S

$$

INZ028-029-035-036-043>045-051>053-261300-
WEST CENTRAL INDIANA

CITY           SKY/WX    TMP DP  RH WIND       PRES   REMARKS
GREENCASTLE +  SUNNY     63  61  94 CALM      30.14S
LAFAYETTE      SUNNY     64  62  93 SE6       30.12S
6HR MIN TEMP:  60; 6HR MAX TEMP:  65;

TERRE HAUTE    SUNNY     66  62  87 SE3       30.12S
6HR MIN TEMP:  63; 6HR MAX TEMP:  67;


$$

INZ030>032-037>040-046>048-054>057-064-065-261300-
CENTRAL INDIANA

CITY           SKY/WX    TMP DP  RH WIND       PRES   REMARKS
COLUMBUS       MOSUNNY   63  61  94 CALM      30.16R
FRANKFORT +    PTSUNNY   65  63  94 S3        30.16R
6HR MIN TEMP:  61; 6HR MAX TEMP:  65;

GREENWOOD *+   SUNNY    N/A N/A N/A SE6       30.16S
INDIANAPOLIS   MOSUNNY   65  61  87 SE8       30.14S
6HR MIN TEMP:  63; 6HR MAX TEMP:  67;

-EAGLE CREEK   SUNNY     66  60  81 SE5       30.14S
6HR MIN TEMP:  64; 6HR MAX TEMP:  69;

KOKOMO +       SUNNY     64  61  90 S6        30.16R
6HR MIN TEMP:  59; 6HR MAX TEMP:  64;

MT COMFORT *+  SUNNY     61  59  94 CALM      30.16S
SHELBYVILLE    SUNNY     64  60  87 E3        30.15R
6HR MIN TEMP:  60; 6HR MAX TEMP:  65;


$$

INZ033-034-041-042-049-050-058-059-261300-
EAST CENTRAL INDIANA

CITY           SKY/WX    TMP DP  RH WIND       PRES   REMARKS
MUNCIE         SUNNY     66  60  81 S3        30.16R
6HR MIN TEMP:  60; 6HR MAX TEMP:  66;

RICHMOND +     SUNNY     57  57 100 E3        30.18R

$$

INZ060-061-067>069-081>083-085>088-261300-
SOUTHWEST INDIANA

CITY           SKY/WX    TMP DP  RH WIND       PRES   REMARKS
EVANSVILLE     SUNNY     70  68  93 NE3       30.11R
6HR MIN TEMP:  69; 6HR MAX TEMP:  74;

HUNTINGBURG *+ MOSUNNY   70  65  84 E3        30.12R
6HR MIN TEMP:  68; 6HR MAX TEMP:  72;


$$

INZ062-063-066-070>080-084-089>092-261300-
SOUTH CENTRAL AND SOUTHEAST INDIANA

CITY           SKY/WX    TMP DP  RH WIND       PRES   REMARKS
BLOOMINGTON    SUNNY     67  62  84 SE5       30.14R
6HR MIN TEMP:  62; 6HR MAX TEMP:  67;

MADISON *+     SUNNY     64  61  88 CALM      30.16S
SEYMOUR +      SUNNY     66  63  88 CALM      30.14S

$$





USA.gov is the U.S. government's official web portal to all federal, state and local government web resources and services.